Flag for U.S.A. Weather past 2 weeks in Shiprock, New Mexico, U.S.A.

Now
71 °F

Clear.


Feels Like: 75 °F
Forecast: 59 / 98 °F
Wind: No wind

Location: Four Corners Regional Airport

Current Time: Jul 22, 2014 at 1:29:17 AM

Latest Report: Jul 22, 2014 at 12:53 AM


Visibility: 10 mi

Pressure: 30.01 "Hg

Humidity: 20%

Dew point: 28 °F

Location of ShiprockLocation

Historic Weather in Shiprock — Graph

°F

Shiprock temperature yesterday

Maximum temperature yesterday: 93 °F (at 1:53 PM)
Minimum temperature yesterday: 64 °F (at 5:53 AM)
Average temperature yesterday: 80 °F

Past Weeks' High & Low Weather Summary

 TemperatureHumidityPressure
High97 °F (Jul 8, 2:53 PM)76% (Jul 11, 1:53 AM)30.13 "Hg (Jul 11, 1:53 AM)
Low60 °F (Jul 18, 5:53 AM)9% (Jul 17, 7:53 PM)29.73 "Hg (Jul 17, 6:53 PM)
Average78 °F35%29.93 "Hg
* Reported Jul 6 11:53 PM — Jul 21 11:53 PM, Shiprock, Weather by CustomWeather, © 2014

Note: Actual official high and low records may vary slightly from our data, if they occured in-between our weather recording intervals... More about our weather records

Advertising

Shiprock weather history for previous 24 hours

 ConditionsComfort  
Time TempWeatherWind HumidityBarometerVisibility
11:53 PM
Jul 21
70 °FClear.No wind21%30.00 "Hg10 mi
10:53 PM72 °FClear.8 mph19%30.00 "Hg10 mi
9:53 PM80 °FClear.5 mph15%29.98 "Hg10 mi
8:53 PM84 °FSunny.8 mph13%29.95 "Hg10 mi
7:53 PM89 °FSunny.10 mph11%29.94 "Hg10 mi
6:53 PM93 °FSunny.10 mph10%29.93 "Hg10 mi
5:53 PM92 °FSunny.No wind11%29.95 "Hg10 mi
4:53 PM91 °FSunny.6 mph12%29.96 "Hg10 mi
3:53 PM92 °FSunny.16 mph12%29.95 "Hg10 mi
2:53 PM92 °FSunny.14 mph11%29.98 "Hg10 mi
1:53 PM93 °FSunny.13 mph10%29.99 "Hg10 mi
12:53 PM89 °FSunny.6 mph14%30.01 "Hg10 mi
11:53 AM85 °FSunny.5 mph16%30.03 "Hg10 mi
10:53 AM80 °FSunny.No wind23%30.04 "Hg10 mi
9:53 AM77 °FSunny.No wind30%30.04 "Hg10 mi
8:53 AM75 °FSunny.6 mph32%30.03 "Hg10 mi
7:53 AM72 °FSunny.6 mph34%30.02 "Hg10 mi
6:53 AM64 °FClear.6 mph35%30.01 "Hg10 mi
5:53 AM64 °FClear.8 mph34%29.98 "Hg10 mi
4:53 AM66 °FClear.9 mph33%29.97 "Hg10 mi
3:53 AM74 °FClear.8 mph33%29.95 "Hg10 mi
2:53 AM69 °FClear.5 mph23%29.95 "Hg10 mi
1:53 AM73 °FClear.5 mph19%29.93 "Hg10 mi
Weather by CustomWeather, © 2014

See weather overviewHow to use our weather pages